User: anonymous   Login
Location: Unspecified
(51.2667°N, 0.0000°E)
Time: 03:31:21
(UTC+00:00)
Language:

Hubble Space Telescope - Orbit

View from above orbital plane
View from above orbital plane
View from above satellite
View from above satellite

Ground track
Ground track

The orbit data is extracted from the following two-line orbital elements,

1 20580U 90037B   19200.56551265  .00000319  00000-0  84652-5 0  9994
2 20580  28.4705   7.7841 0002851  96.5958 347.4215 15.09245715405552
Epoch (UTC): 19 July 2019 13:34:20
Eccentricity: 0.0002851
inclination: 28.4705°
perigee height: 536 km
apogee height: 540 km
right ascension of ascending node: 7.7841°
argument of perigee: 96.5958°
revolutions per day: 15.09245715
mean anomaly at epoch: 347.4215°
orbit number at epoch: 40555

The dashed part of the orbit path shows where the satellite is in the earth's shadow,  

DLR